Погода в Новой Бии

Россия / Удмуртская Республика     56°47′55″N   51°41′48″E
темп.,
°C
ветер,
м/с
пор.,
м/с
влажн.,
%
обл.,
%
осадки,
мм/ч
давл.,
гПа
погр.,
м
6 марта, сб
сб601:00−10зюз399684 0.1 1007217
04:00−13зюз349788 0.2 100961
07:00−13зсз3696100 0.1 1010174
10:00−14зсз359263 0.1 1011274
13:00−10зсз468479 0.0 1012761
16:00−10з468490 0.1 1012805
19:00−15з339290 0.0 101323
22:00−16зюз239647 0.0 101321
7 марта, вс
вс701:00−16зюз229786 0.1 101121
04:00−17юз129891 0.1 101120
07:00−17ююз229897 0.1 101122
10:00−13юз249395 0.1 1010255
13:00−10юз3483100 0.1 1009673
16:00−9ююз3584100 0.1 1007734
19:00−14ююв479594 0.0 1006121
22:00−12ююв5109496 0.1 1004327
8 марта, пн
пн801:00−11ююв61294100 0.2 1000497
04:00−10ююв61293100 0.7 996638
07:00−8ююв61294100 0.6 993618
10:00−8юз71190100 1.4 993667
13:00−7юз7118598 0.3 994776
16:00−6ююз6108282 0.3 995910
19:00−8ююз3995100 0.4 996420
22:00−9юз4894100 0.6 996263
9 марта, вт
вт901:00−10юз4995100 0.3 998335
04:00−12з499598 0.5 1000236
07:00−15з379795 0.1 1002147
10:00−13зсз469497 0.1 1004338
13:00−10зсз4689100 0.1 1006622
16:00−10зсз4689100 0.3 1007708
19:00−13зсз3696100 0.3 1008201
22:00−16зсз369792 0.3 1010105
10 марта, ср
ср1001:00−18зсз369983 0.0 101195
04:00−18сз359888 0.1 1012129
07:00−20сз349988 0.1 1013100
10:00−18ссз459390 0.1 1014407
13:00−16ссз4589100 0.0 1015510
16:00−16ссз4687100 0.1 1016611
19:00−21сз349592 0.0 101770
22:00−25сз349745 0.0 101942